User: anonymous   Login
Location: Fort Wayne
(41.1310°N, 85.1290°W)
Time: 15:21:09
(UTC-04:00)
Language:

Cosmos 2082 - Orbit

View from above orbital plane
View from above orbital plane
View from above satellite
View from above satellite

Ground track
Ground track

The orbit data is extracted from the following two-line orbital elements,

1 20624U 90046A   14304.49894918 -.00000247  00000-0 -10471-3 0   584
2 20624 071.0426 063.0980 0013499 041.8622 026.9495 14.14105085261521
Epoch (UTC): 31 October 2014 11:58:29
Eccentricity: 0.0013499
inclination: 71.0426°
perigee height: 835 km
apogee height: 855 km
right ascension of ascending node: 63.0980°
argument of perigee: 41.8622°
revolutions per day: 14.14105085
mean anomaly at epoch: 26.9495°
orbit number at epoch: 26152

The dashed part of the orbit path shows where the satellite is in the earth's shadow,  

DLR